Regional Weather Roundup
Issued by NWS

Home | Current Version | Previous Version | Text Only | Print | Product List | Glossary Off
Versions: 1 2 3 4 5 6 7 8 9 10 11 12 13 14 15 16 17 18 19 20 21 22 23 24 25 26 27 28 29 30 31 32 33 34 35 36 37 38 39 40 41 42 43 44 45 46 47 48 49 50

000
ASUS45 KCYS 012310
RWRWY

WYOMING REGIONAL WEATHER ROUNDUP
NATIONAL WEATHER SERVICE CHEYENNE WY
500 PM MDT SAT AUG 01 2015

NOTE:  "FAIR" INDICATES FEW OR NO CLOUDS BELOW 12,000 FEET
WITH NO SIGNIFICANT WEATHER AND/OR OBSTRUCTIONS TO VISIBILITY.

WYZ001-020000-
YELLOWSTONE NATIONAL PARK

CITY           SKY/WX    TMP DP  RH WIND       PRES   REMARKS
LK YELLOWSTONE   N/A     74  32  21 CALM      30.34F
W YELLOWSTONE  NOT AVBL

$$
WYZ002>013-054>058-071-098>099-020000-
NORTHERN WYOMING

CITY           SKY/WX    TMP DP  RH WIND       PRES   REMARKS
JACKSON        SUNNY     84  25  11 W7        30.21
CODY           FAIR      88  37  16 NE9       30.08S
GREYBULL       FAIR      96  18   6 VRB5      29.97F
WORLAND        FAIR      95  26   8 NE8       30.00F
SHERIDAN       FAIR      96  25   8 N12G21    29.98F HX  90
BUFFALO        FAIR      92  29  10 N8        30.07F
GILLETTE       FAIR      94  24   8 N10G20    30.00F
HULETT         FAIR      90  32  12 S10       30.01F
NEWCASTLE      FAIR      91  23   8 NW8G17    30.01F

$$
WYZ014>020-022>026-101>103-020000-
CENTRAL WYOMING

CITY           SKY/WX    TMP DP  RH WIND       PRES   REMARKS
BIG PINEY      FAIR      85  18   8 N13G23    30.25F
PINEDALE       FAIR      82  25  12 W9G17     30.25F
DUBOIS         FAIR      81  16   9 NW13      30.25S
LANDER         FAIR      92  32  12 N12       30.08F
RIVERTON       FAIR      91  29  11 VRB5      30.10F
CASPER         FAIR      92  26   9 VRB3      30.07F
DOUGLAS        FAIR      94  32  11 NW7       30.05F

$$
WYZ021-027>030-104>119-020000-
SOUTHERN WYOMING

CITY           SKY/WX    TMP DP  RH WIND       PRES   REMARKS
EVANSTON       FAIR      86  22   9 NW12      30.24F
KEMMERER       FAIR     N/A N/A N/A CALM      30.25F
FORT BRIDGER   CLEAR     86  23  10 W3        30.25F
ROCK SPRINGS   FAIR      85  24  11 VRB5      30.19F
DIXON          FAIR      90  23   8 NW5       30.19F
RAWLINS        FAIR      87  25  10 VRB6G18   30.19F
SARATOGA       FAIR      88  23   9 W5        30.21F
LARAMIE        FAIR      83  27  13 NW8       30.22F
CHEYENNE       FAIR      87  40  19 SE7       30.14F
TORRINGTON     FAIR      87  44  22 SE7       29.99S
PINE BLUFFS    FAIR      88  41  19 SE8       30.07F

$$



USA.gov is the U.S. government's official web portal to all federal, state and local government web resources and services.